Terug naar catalogus

STARLINK-32639

ActiefCommunicatieVLEO
NORAD 62153·PAYLOAD·🇺🇸 United States

Gelanceerd Nov 30, 2024 vanaf Cape Canaveral Space Force Station

Loading…

Volgende Passages (komende 24 uur)

TLE

VersSource: CelesTrak SupGP

Epoch: Sep 15, 2026, 02:00 UTC

1 62153C 24224Q   26258.08381944 -.00040730  00000+0 -14755-2 0  2588
2 62153  43.0019 168.7081 0001357 278.7284  60.7884 15.27592194    10

Volg STARLINK-32639 in realtime met AllMySat

Download on the App Store